Location: Newark
(0.5300°S, 127.4800°E)
Time: 23:59:35
(UTC+00:00)

A-11 Canister half - Pass Details

Date: 24 September 2019
Orbit: 1514 x 1686 km, 47.2° (Epoch: 14 October)

Event Time Altitude Azimuth Distance (km) Brightness Sun altitude
Rises 10:12:22 0° 307° (NW) 4,718 12.5 -12.5°
Reaches altitude 10° 10:15:30 10° 302° (WNW) 3,757 12.0 -13.3°
Maximum altitude 10:24:38 50° 230° (SW) 1,980 9.9 -15.6°
Drops below altitude 10° 10:34:08 10° 157° (SSE) 3,896 10.9 -18.0°
Sets 10:37:29 0° 151° (SSE) 4,903 11.4 -18.8°
